FW4741 Weather Reports


Display with metric or nautical units.
time (UTC)temp
F
wind
direction
speed
MPH
gust
MPH
rain 1hr
in
rain 24hr
in
rain mn
in
humidity
%
barometer
mb
20260509144103 69 77 2.0 6.0 0.00 0.00 0.00 51 1021.7
20260509143604 68 77 2.0 6.0 0.00 0.00 0.00 53 1021.6
20260509143103 68 77 2.0 6.0 0.00 0.00 0.00 53 1021.6
20260509142604 67 77 2.0 6.0 0.00 0.00 0.00 54 1021.5
20260509142103 67 77 2.0 6.0 0.00 0.00 0.00 55 1021.6
20260509141604 66 77 2.0 6.0 0.00 0.00 0.00 55 1021.5
20260509141104 66 77 2.0 6.0 0.00 0.00 0.00 55 1021.5
20260509140103 65 77 2.0 6.0 0.00 0.00 0.00 58 1021.5
20260509135603 64 77 2.0 6.0 0.00 0.00 0.00 60 1021.6
20260509135104 63 77 2.0 6.0 0.00 0.00 0.00 60 1021.6
20260509134605 63 77 2.0 6.0 0.00 0.00 0.00 62 1021.7
20260509134103 63 77 2.0 6.0 0.00 0.00 0.00 61 1021.7
20260509133604 63 77 2.0 6.0 0.00 0.00 0.00 60 1021.6
20260509133104 62 77 2.0 6.0 0.00 0.00 0.00 61 1021.6
20260509132604 62 77 2.0 6.0 0.00 0.00 0.00 61 1021.6
20260509131604 61 77 2.0 6.0 0.00 0.00 0.00 62 1021.5
20260509130603 60 77 2.0 6.0 0.00 0.00 0.00 63 1021.5
20260509125604 60 77 2.0 6.0 0.00 0.00 0.00 63 1021.4
20260509125104 60 77 2.0 6.0 0.00 0.00 0.00 64 1021.4
20260509124604 60 77 2.0 6.0 0.00 0.00 0.00 63 1021.3
20260509124104 60 77 2.0 6.0 0.00 0.00 0.00 62 1021.3
20260509123603 60 77 2.0 6.0 0.00 0.00 0.00 62 1021.3
20260509123104 60 77 2.0 6.0 0.00 0.00 0.00 62 1021.2
20260509122604 60 77 2.0 6.0 0.00 0.00 0.00 61 1021.1
20260509122104 60 77 2.0 6.0 0.00 0.00 0.00 61 1021.1
20260509121603 60 77 2.0 6.0 0.00 0.00 0.00 62 1021.0
20260509121103 60 77 2.0 6.0 0.00 0.00 0.00 63 1021.0
20260509115104 60 77 2.0 6.0 0.00 0.00 0.00 61 1020.9
20260509114604 60 77 2.0 6.0 0.00 0.00 0.00 61 1020.8
20260509113604 61 77 2.0 6.0 0.00 0.00 0.00 61 1020.7
20260509113104 61 77 2.0 6.0 0.00 0.00 0.00 60 1020.7
20260509112604 61 77 2.0 6.0 0.00 0.00 0.00 59 1020.7
20260509112103 62 77 2.0 6.0 0.00 0.00 0.00 59 1020.6
20260509111103 62 77 2.0 6.0 0.00 0.00 0.00 59 1020.6
20260509110603 62 77 2.0 6.0 0.00 0.00 0.00 60 1020.6
20260509110103 62 77 2.0 6.0 0.00 0.00 0.00 60 1020.7
20260509105603 62 77 2.0 6.0 0.00 0.00 0.00 60 1020.7
20260509104108 62 77 2.0 6.0 0.00 0.00 0.00 59 1020.5
20260509103603 62 77 2.0 6.0 0.00 0.00 0.00 58 1020.5
20260509103103 62 77 2.0 6.0 0.00 0.00 0.00 58 1020.5
20260509102603 62 77 2.0 6.0 0.00 0.00 0.00 58 1020.4
20260509102104 63 77 2.0 6.0 0.00 0.00 0.00 57 1020.4
20260509101603 63 77 2.0 6.0 0.00 0.00 0.00 57 1020.4
20260509101104 63 77 2.0 6.0 0.00 0.00 0.00 57 1020.4
20260509100603 63 77 2.0 6.0 0.00 0.00 0.00 57 1020.4
20260509100103 63 77 2.0 6.0 0.00 0.00 0.00 56 1020.4
20260509095103 63 77 2.0 6.0 0.00 0.00 0.00 56 1020.4
20260509094603 63 77 2.0 6.0 0.00 0.00 0.00 56 1020.4
20260509094103 63 77 2.0 6.0 0.00 0.00 0.00 56 1020.4
20260509093103 63 77 2.0 6.0 0.00 0.00 0.00 56 1020.5
20260509092604 63 77 2.0 6.0 0.00 0.00 0.00 56 1020.5
20260509092103 63 77 2.0 6.0 0.00 0.00 0.00 56 1020.4
20260509091104 63 77 2.0 6.0 0.00 0.00 0.00 56 1020.4
20260509090604 63 77 2.0 6.0 0.00 0.00 0.00 58 1020.5
20260509085603 64 77 2.0 6.0 0.00 0.00 0.00 56 1020.4
20260509085103 64 77 2.0 6.0 0.00 0.00 0.00 56 1020.5
20260509084603 64 77 2.0 6.0 0.00 0.00 0.00 55 1020.5
20260509083603 64 77 2.0 6.0 0.00 0.00 0.00 54 1020.5
20260509083104 65 77 2.0 6.0 0.00 0.00 0.00 54 1020.6
20260509082103 65 77 2.0 6.0 0.00 0.00 0.00 53 1020.6
20260509081604 65 77 2.0 6.0 0.00 0.00 0.00 53 1020.6
20260509081103 65 77 2.0 6.0 0.00 0.00 0.00 53 1020.6
20260509080604 65 77 2.0 6.0 0.00 0.00 0.00 54 1020.6
20260509080103 65 77 2.0 6.0 0.00 0.00 0.00 54 1020.7
20260509075604 65 77 2.0 6.0 0.00 0.00 0.00 53 1020.7
20260509075103 65 77 2.0 6.0 0.00 0.00 0.00 53 1020.8
20260509074603 65 77 2.0 6.0 0.00 0.00 0.00 53 1020.8
20260509073604 65 77 2.0 6.0 0.00 0.00 0.00 53 1020.8
20260509073104 66 77 2.0 6.0 0.00 0.00 0.00 53 1020.8
20260509072603 66 77 2.0 6.0 0.00 0.00 0.00 53 1020.9
20260509071603 66 77 2.0 6.0 0.00 0.00 0.00 52 1021.0
20260509071103 66 77 2.0 6.0 0.00 0.00 0.00 52 1020.9
20260509070603 66 77 2.0 6.0 0.00 0.00 0.00 52 1020.9
20260509065603 67 77 2.0 6.0 0.00 0.00 0.00 52 1021.1
20260509065103 67 77 2.0 6.0 0.00 0.00 0.00 51 1021.0
20260509064604 67 77 2.0 6.0 0.00 0.00 0.00 51 1021.0
20260509063603 67 77 2.0 6.0 0.00 0.00 0.00 50 1021.0
20260509063103 67 77 2.0 6.0 0.00 0.00 0.00 50 1021.0
20260509062603 67 77 2.0 6.0 0.00 0.00 0.00 50 1021.0
20260509062103 66 77 2.0 6.0 0.00 0.00 0.00 51 1021.1
20260509061604 66 77 2.0 6.0 0.00 0.00 0.00 52 1021.1
20260509061103 66 77 2.0 6.0 0.00 0.00 0.00 54 1021.1
20260509060103 66 77 2.0 6.0 0.00 0.00 0.00 53 1021.1
20260509055604 66 77 2.0 6.0 0.00 0.00 0.00 53 1021.1
20260509055104 66 77 2.0 6.0 0.00 0.00 0.00 53 1021.1
20260509054103 67 77 2.0 6.0 0.00 0.00 0.00 52 1021.1
20260509053603 67 77 2.0 6.0 0.00 0.00 0.00 53 1021.1
20260509053103 67 77 2.0 6.0 0.00 0.00 0.00 52 1021.0
20260509052604 68 77 2.0 6.0 0.00 0.00 0.00 52 1021.0
20260509052103 68 77 2.0 6.0 0.00 0.00 0.00 51 1021.1
20260509050604 69 77 2.0 6.0 0.00 0.00 0.00 47 1021.1
20260509045603 69 77 2.0 6.0 0.00 0.00 0.00 47 1021.1
20260509045103 69 77 2.0 6.0 0.00 0.00 0.00 49 1021.1
20260509044603 69 77 2.0 6.0 0.00 0.00 0.00 49 1021.1
20260509044103 69 77 2.0 6.0 0.00 0.00 0.00 47 1021.1
20260509043604 69 77 2.0 6.0 0.00 0.00 0.00 47 1021.0
20260509042603 70 77 2.0 6.0 0.00 0.00 0.00 46 1020.9
20260509042103 71 77 2.0 6.0 0.00 0.00 0.00 45 1020.8
20260509041603 71 77 2.0 6.0 0.00 0.00 0.00 45 1020.8
20260509041104 71 77 2.0 6.0 0.00 0.00 0.00 45 1020.7
20260509035604 70 77 2.0 6.0 0.00 0.00 0.00 45 1020.5
20260509035103 71 77 2.0 6.0 0.00 0.00 0.00 45 1020.5
20260509034603 71 77 2.0 6.0 0.00 0.00 0.00 45 1020.5
20260509034103 71 77 2.0 6.0 0.00 0.00 0.00 44 1020.4
20260509033603 71 77 2.0 6.0 0.00 0.00 0.00 44 1020.3
20260509033104 71 77 2.0 6.0 0.00 0.00 0.00 44 1020.3
20260509032603 71 77 2.0 6.0 0.00 0.00 0.00 44 1020.3
20260509032103 72 77 2.0 6.0 0.00 0.00 0.00 44 1020.3
20260509031604 72 77 2.0 6.0 0.00 0.00 0.00 43 1020.2
20260509031103 73 77 2.0 6.0 0.00 0.00 0.00 42 1020.2
20260509030603 73 77 2.0 6.0 0.00 0.00 0.00 41 1020.1
20260509030104 73 77 2.0 6.0 0.00 0.00 0.00 41 1020.1
20260509025604 73 77 2.0 6.0 0.00 0.00 0.00 41 1020.0
20260509025103 73 77 2.0 6.0 0.00 0.00 0.00 41 1020.0
20260509024604 73 77 2.0 6.0 0.00 0.00 0.00 42 1020.0
20260509024104 73 77 2.0 6.0 0.00 0.00 0.00 41 1019.9
20260509023603 74 77 2.0 6.0 0.00 0.00 0.00 41 1019.9
20260509023103 74 77 2.0 6.0 0.00 0.00 0.00 40 1019.8
20260509022603 74 77 2.0 6.0 0.00 0.00 0.00 40 1019.7
20260509022103 75 77 2.0 6.0 0.00 0.00 0.00 40 1019.6
20260509021604 76 77 2.0 6.0 0.00 0.00 0.00 39 1019.6
20260509021104 77 77 2.0 6.0 0.00 0.00 0.00 39 1019.5
20260509020604 77 77 2.0 6.0 0.00 0.00 0.00 38 1019.4
20260509020104 78 77 2.0 6.0 0.00 0.00 0.00 37 1019.4
20260509015104 79 77 2.0 6.0 0.00 0.00 0.00 34 1019.2
20260509013603 79 77 2.0 6.0 0.00 0.00 0.00 35 1019.0
20260509013104 80 77 2.0 6.0 0.00 0.00 0.00 34 1019.0
20260509012604 80 77 2.0 6.0 0.00 0.00 0.00 34 1019.0
20260509012103 81 77 2.0 6.0 0.00 0.00 0.00 34 1018.9
20260509011603 81 77 2.0 6.0 0.00 0.00 0.00 33 1018.8
20260509011104 81 77 2.0 6.0 0.00 0.00 0.00 33 1018.7
20260509010604 82 77 2.0 6.0 0.00 0.00 0.00 33 1018.7
20260509010103 82 77 2.0 6.0 0.00 0.00 0.00 33 1018.7
20260509005604 82 77 2.0 6.0 0.00 0.00 0.00 32 1018.6
20260509005104 83 77 2.0 6.0 0.00 0.00 0.00 32 1018.6
20260509004603 83 77 2.0 6.0 0.00 0.00 0.00 31 1018.5
20260509004103 83 77 2.0 6.0 0.00 0.00 0.00 31 1018.5
20260509003603 84 77 2.0 6.0 0.00 0.00 0.00 31 1018.4
20260509003104 84 77 2.0 6.0 0.00 0.00 0.00 31 1018.4
20260509002603 84 77 2.0 6.0 0.00 0.00 0.00 31 1018.4
20260509002104 84 77 2.0 6.0 0.00 0.00 0.00 30 1018.3
20260509001603 85 77 2.0 6.0 0.00 0.00 0.00 31 1018.3
20260509001103 85 77 2.0 6.0 0.00 0.00 0.00 30 1018.2
20260509000604 85 77 2.0 6.0 0.00 0.00 0.00 30 1018.2
20260509000104 85 77 2.0 6.0 0.00 0.00 0.00 30 1018.2
20260508235603 85 77 2.0 6.0 0.00 0.00 0.00 30 1018.1
20260508235104 85 77 2.0 6.0 0.00 0.00 0.00 30 1018.1
20260508234604 85 77 2.0 6.0 0.00 0.00 0.00 31 1018.1
20260508233604 85 77 2.0 6.0 0.00 0.00 0.00 31 1018.1
20260508233103 85 77 2.0 6.0 0.00 0.00 0.00 30 1018.0
20260508232103 85 77 2.0 6.0 0.00 0.00 0.00 29 1018.0
20260508231103 86 77 2.0 6.0 0.00 0.00 0.00 29 1018.0
20260508230604 86 77 2.0 6.0 0.00 0.00 0.00 30 1017.9
20260508230104 86 77 2.0 6.0 0.00 0.00 0.00 30 1018.0
20260508225604 86 77 2.0 6.0 0.00 0.00 0.00 29 1017.9
20260508225104 86 77 2.0 6.0 0.00 0.00 0.00 28 1017.9
20260508224603 86 77 2.0 6.0 0.00 0.00 0.00 29 1017.9
20260508224103 86 77 2.0 6.0 0.00 0.00 0.00 28 1017.9
20260508222604 86 77 2.0 6.0 0.00 0.00 0.00 27 1018.0
20260508222104 86 77 2.0 6.0 0.00 0.00 0.00 27 1018.1
20260508221604 86 77 2.0 6.0 0.00 0.00 0.00 27 1018.1
20260508221104 86 77 2.0 6.0 0.00 0.00 0.00 27 1018.1
20260508220103 87 77 2.0 6.0 0.00 0.00 0.00 27 1018.1
20260508215603 86 77 2.0 6.0 0.00 0.00 0.00 28 1018.1
20260508215103 86 77 2.0 6.0 0.00 0.00 0.00 28 1018.1
20260508214603 86 77 2.0 6.0 0.00 0.00 0.00 28 1018.2
20260508213603 86 77 2.0 6.0 0.00 0.00 0.00 30 1018.2
20260508213104 86 77 2.0 6.0 0.00 0.00 0.00 29 1018.3
20260508212603 86 77 2.0 6.0 0.00 0.00 0.00 28 1018.3
20260508212103 86 77 2.0 6.0 0.00 0.00 0.00 30 1018.3
20260508211603 86 77 2.0 6.0 0.00 0.00 0.00 29 1018.4
20260508211104 86 77 2.0 6.0 0.00 0.00 0.00 31 1018.5
20260508210603 85 77 2.0 6.0 0.00 0.00 0.00 30 1018.5
20260508210104 86 77 2.0 6.0 0.00 0.00 0.00 31 1018.6
20260508205604 86 77 2.0 6.0 0.00 0.00 0.00 30 1018.6
20260508203103 85 77 2.0 6.0 0.00 0.00 0.00 31 1019.0
20260508202603 85 77 2.0 6.0 0.00 0.00 0.00 32 1019.0
20260508202104 85 77 2.0 6.0 0.00 0.00 0.00 33 1019.0
20260508201604 85 77 2.0 6.0 0.00 0.00 0.00 32 1019.2
20260508201104 85 77 2.0 6.0 0.00 0.00 0.00 32 1019.1
20260508200604 85 77 2.0 6.0 0.00 0.00 0.00 33 1019.3
20260508200104 84 77 2.0 6.0 0.00 0.00 0.00 33 1019.4
20260508195603 84 77 2.0 6.0 0.00 0.00 0.00 33 1019.4
20260508195103 84 77 2.0 6.0 0.00 0.00 0.00 34 1019.5
20260508194604 84 77 2.0 6.0 0.00 0.00 0.00 34 1019.6
20260508194104 84 77 2.0 6.0 0.00 0.00 0.00 34 1019.7
20260508193603 85 77 2.0 6.0 0.00 0.00 0.00 33 1019.7
20260508192604 84 77 2.0 6.0 0.00 0.00 0.00 34 1019.8
20260508192103 84 77 2.0 6.0 0.00 0.00 0.00 34 1019.8
20260508191603 83 77 2.0 6.0 0.00 0.00 0.00 34 1019.8
20260508191103 83 77 2.0 6.0 0.00 0.00 0.00 34 1019.9
20260508190604 83 77 2.0 6.0 0.00 0.00 0.00 34 1020.0
20260508190104 83 77 2.0 6.0 0.00 0.00 0.00 34 1020.0
20260508185603 83 77 2.0 6.0 0.00 0.00 0.00 34 1020.1
20260508185104 83 77 2.0 6.0 0.00 0.00 0.00 35 1020.1
20260508184604 83 77 2.0 6.0 0.00 0.00 0.00 35 1020.1
20260508184104 82 77 2.0 6.0 0.00 0.00 0.00 35 1020.2
20260508183604 82 77 2.0 6.0 0.00 0.00 0.00 36 1020.2
20260508183104 83 77 2.0 6.0 0.00 0.00 0.00 36 1020.2
20260508182604 83 77 2.0 6.0 0.00 0.00 0.00 35 1020.2
20260508182104 82 77 2.0 6.0 0.00 0.00 0.00 36 1020.2
20260508181604 82 77 2.0 6.0 0.00 0.00 0.00 35 1020.3
20260508181104 82 77 2.0 6.0 0.00 0.00 0.00 36 1020.3
20260508180604 82 77 2.0 6.0 0.00 0.00 0.00 35 1020.3
20260508180104 81 77 2.0 6.0 0.00 0.00 0.00 37 1020.4
20260508175603 82 77 2.0 6.0 0.00 0.00 0.00 41 1020.4
20260508175103 82 77 2.0 6.0 0.00 0.00 0.00 39 1020.4
20260508174604 82 77 2.0 6.0 0.00 0.00 0.00 40 1020.5
20260508174103 81 77 2.0 6.0 0.00 0.00 0.00 41 1020.5
20260508173604 82 77 2.0 6.0 0.00 0.00 0.00 41 1020.6
20260508172104 81 77 2.0 6.0 0.00 0.00 0.00 41 1020.7
20260508171103 80 77 2.0 6.0 0.00 0.00 0.00 43 1020.8
20260508170603 80 77 2.0 6.0 0.00 0.00 0.00 43 1020.8
20260508170104 81 77 2.0 6.0 0.00 0.00 0.00 41 1020.9
20260508165604 80 77 2.0 6.0 0.00 0.00 0.00 41 1020.9
20260508165104 80 77 2.0 6.0 0.00 0.00 0.00 41 1021.0
20260508164604 80 77 2.0 6.0 0.00 0.00 0.00 42 1021.0
20260508164103 79 77 2.0 6.0 0.00 0.00 0.00 41 1021.0
20260508163103 79 77 2.0 6.0 0.00 0.00 0.00 41 1021.1
20260508162604 78 77 2.0 6.0 0.00 0.00 0.00 42 1021.2
20260508162104 79 77 2.0 6.0 0.00 0.00 0.00 43 1021.3
20260508161603 79 77 2.0 6.0 0.00 0.00 0.00 41 1021.3
20260508161103 79 77 2.0 6.0 0.00 0.00 0.00 40 1021.3
20260508160604 78 77 2.0 6.0 0.00 0.00 0.00 39 1021.4
20260508160103 78 77 2.0 6.0 0.00 0.00 0.00 38 1021.4
20260508155604 78 77 2.0 6.0 0.00 0.00 0.00 38 1021.4
20260508155104 77 77 2.0 6.0 0.00 0.00 0.00 37 1021.5
20260508154103 76 77 2.0 6.0 0.00 0.00 0.00 39 1021.5
20260508153104 74 77 2.0 6.0 0.00 0.00 0.00 42 1021.5
20260508152604 74 77 2.0 6.0 0.00 0.00 0.00 42 1021.6
20260508152103 73 77 2.0 6.0 0.00 0.00 0.00 43 1021.6
20260508151604 73 77 2.0 6.0 0.00 0.00 0.00 43 1021.6
20260508151104 72 77 2.0 6.0 0.00 0.00 0.00 44 1021.6
20260508150604 72 77 2.0 6.0 0.00 0.00 0.00 44 1021.6
20260508145603 70 77 2.0 6.0 0.00 0.00 0.00 46 1021.7
20260508145104 69 77 2.0 6.0 0.00 0.00 0.00 46 1021.7
20260508144604 69 77 2.0 6.0 0.00 0.00 0.00 47 1021.7